Location: Newark
(58.9986°N, 38.5006°E)
Time: 09:57:43
(UTC+00:00)

Transit 2A Rocket - Visible Passes

Search period start: 19 April 2021 00:00
Search period end: 29 April 2021 00:00
Orbit: 594 x 908 km, 66.7° (Epoch: 18 April)

Date Brightness Start Highest point End Pass type
(mag) Time Alt. Az. Time Alt. Az. Time Alt. Az.
19 Apr 5.8 18:27:42 10° NW 18:31:44 36° NNE 18:35:54 10° E visible
19 Apr 4.5 20:10:19 10° NW 20:14:42 89° SSW 20:16:38 34° SE visible
19 Apr 6.0 21:53:18 10° WNW 21:56:31 23° WSW 21:56:31 23° WSW visible
20 Apr 6.0 17:44:58 10° NW 17:48:53 32° NNE 17:52:55 10° ENE visible
20 Apr 4.8 19:27:41 10° NW 19:32:03 67° NE 19:34:59 21° ESE visible
20 Apr 5.4 21:10:24 10° WNW 21:14:22 33° WSW 21:14:51 33° SW visible
21 Apr 5.2 18:45:03 10° NW 18:49:19 51° NNE 18:53:20 12° ESE visible
21 Apr 4.9 20:27:38 10° NW 20:31:54 49° SW 20:33:14 37° S visible
21 Apr 6.9 22:12:07 10° W 22:13:06 11° WSW 22:13:06 11° WSW visible
22 Apr 5.6 18:02:24 10° NW 18:06:32 41° NNE 18:10:49 10° E visible
22 Apr 4.6 19:44:58 10° NW 19:49:21 72° SW 19:51:37 29° SSE visible
22 Apr 6.4 21:28:16 10° WNW 21:31:15 18° WSW 21:31:30 18° WSW visible
23 Apr 4.6 19:02:20 10° NW 19:06:44 81° NE 19:10:02 19° SE visible
23 Apr 5.9 20:45:12 10° WNW 20:48:54 26° WSW 20:49:55 24° SW visible
24 Apr 4.9 18:19:42 10° NW 18:24:03 60° NNE 18:28:29 11° ESE visible
24 Apr 5.4 20:02:21 10° WNW 20:06:28 39° SW 20:08:22 26° S visible
25 Apr 4.9 19:19:38 10° NW 19:23:58 57° SW 19:26:50 22° SSE visible
25 Apr 6.7 21:03:30 10° W 21:05:42 14° WSW 21:06:44 13° SW visible
26 Apr 4.6 18:36:59 10° NW 18:41:24 82° SW 18:45:20 14° SE visible
26 Apr 6.4 20:20:05 10° WNW 20:23:24 21° WSW 20:25:14 17° SSW visible
27 Apr 4.7 17:54:21 10° NW 17:58:45 73° NE 18:03:24 10° ESE visible
27 Apr 5.9 19:37:07 10° WNW 19:41:01 30° WSW 19:43:45 17° S visible
28 Apr 5.3 18:54:20 10° NW 18:58:34 45° SW 19:02:18 14° SSE visible
28 Apr 7.1 20:40:03 10° WSW 20:40:07 10° WSW 20:40:11 10° WSW visible
